User: anonymous   Login
Location: Caltech
(34.1382°N, 118.1253°W)
Time: 17:35:16
(UTC-07:00)
Language:

SL-08 R/B - Orbit

View from above orbital plane
View from above orbital plane
View from above satellite
View from above satellite

Ground track
Ground track

The orbit data is extracted from the following two-line orbital elements,

1 27561U 02054C   17085.90824832 +.00000057 +00000-0 +23468-4 0  9998
2 27561 098.2433 220.6766 0047383 070.3296 290.3005 14.55598234760236
Epoch (UTC): 26 March 2017 21:47:52
Eccentricity: 0.0047383
inclination: 98.2433°
perigee height: 674 km
apogee height: 741 km
right ascension of ascending node: 220.6766°
argument of perigee: 70.3296°
revolutions per day: 14.55598234
mean anomaly at epoch: 290.3005°
orbit number at epoch: 76023

The dashed part of the orbit path shows where the satellite is in the earth's shadow,  

DLR